Weather History for KRAP - February, 2013

Change the Weather History Date:

Tuesday, February 12, 2013

  Actual Average Record
Temperature  
Mean Temperature 30 °F 27 °F  
Max Temperature 47 °F 39 °F 72 °F (1983)
Min Temperature 13 °F 14 °F -11 °F (1949)
Degree Days  
Heating Degree Days 35 38  
Month to date heating degree days 394 468  
Since 1 July heating degree days 4387 4624  
Cooling Degree Days 0 0  
Month to date cooling degree days 0 0  
Year to date cooling degree days 0 0  
Moisture  
Dew Point 15 °F    
Average Humidity 49    
Maximum Humidity 67    
Minimum Humidity 31    
Precipitation  
Precipitation 0.00 in 0.02 in 0.30 in (2007)
Month to date precipitation 0.06 0.14  
Year to date precipitation 0.49 0.44  
Snow  
Snow 0.00 in 0.20 in 4.60 in (1978)
Month to date snowfall 1.9 2.0  
Since 1 July snowfall 18.5 19.6  
Snow Depth 2.00 in    
Sea Level Pressure  
Sea Level Pressure 30.01 in    
Wind  
Wind Speed 9 mph (NW)    
Max Wind Speed 25 mph    
Max Gust Speed 31 mph    
Visibility 10 miles    
Events      
T = Trace of Precipitation, MM = Missing Value Source: NWS Daily Summary

Daily Weather History Graph

Daily Weather History Graph

Search for Another Location

Airport or City:

Trip Planner

Search our weather history database for the weather conditions in past years. The results will help you decide how hot, cold, wet, or windy it might be!

Date:

Astronomy

Feb. 12, 2013 Rise Set
Actual Time 6:55 AM MST 5:18 PM MST
Civil Twilight 6:25 AM MST 5:48 PM MST
Nautical Twilight 5:51 AM MST 6:21 PM MST
Astronomical Twilight 5:18 AM MST 6:55 PM MST
Moon 7:46 AM MST (2/12) 8:30 PM MST (2/12)
Length of Visible Light 11h 22m
Length of Day
10h 22m
Waxing Crescent, 8% of the Moon is Illuminated
Feb 12
Waxing Crescent
Feb 17
First Quarter
Feb 25
Full
Mar 4
Last Quarter
Mar 11
New

Hourly Weather History & Observations

Time (MST) Temp. Windchill Dew Point Humidity Pressure Visibility Wind Dir Wind Speed Gust Speed Precip Events Conditions
12:52 AM 19.0 °F 12.3 °F 7.0 °F 59% 30.04 in 10.0 mi WSW 4.6 mph - N/A   Clear
1:52 AM 19.0 °F 12.3 °F 8.1 °F 62% 30.03 in 10.0 mi WSW 4.6 mph - N/A   Partly Cloudy
2:52 AM 19.9 °F - 10.0 °F 65% 30.01 in 10.0 mi Calm Calm - N/A   Partly Cloudy
3:52 AM 17.1 °F - 5.0 °F 59% 30.02 in 10.0 mi Calm Calm - N/A   Clear
4:52 AM 14.0 °F - 5.0 °F 67% 30.04 in 10.0 mi Calm Calm - N/A   Clear
5:52 AM 15.1 °F 9.4 °F 6.1 °F 68% 30.05 in 10.0 mi West 3.5 mph - N/A   Scattered Clouds
6:52 AM 19.9 °F 14.9 °F 10.0 °F 65% 30.06 in 10.0 mi WNW 3.5 mph - N/A   Mostly Cloudy
7:52 AM 26.1 °F - 15.1 °F 63% 30.06 in 10.0 mi Calm Calm - N/A   Clear
8:52 AM 33.1 °F - 19.9 °F 59% 30.07 in 10.0 mi Calm Calm - N/A   Scattered Clouds
9:52 AM 37.9 °F - 17.1 °F 43% 30.05 in 10.0 mi Calm Calm - N/A   Clear
10:52 AM 45.0 °F 38.9 °F 18.0 °F 34% 30.04 in 10.0 mi North 12.7 mph 16.1 mph N/A   Mostly Cloudy
11:52 AM 44.1 °F 35.4 °F 21.0 °F 40% 30.02 in 10.0 mi North 21.9 mph 27.6 mph N/A   Overcast
12:52 PM 44.1 °F 35.2 °F 21.0 °F 40% 30.00 in 10.0 mi North 23.0 mph 28.8 mph N/A   Overcast
1:52 PM 46.9 °F - 19.9 °F 34% 29.98 in 10.0 mi NNW 18.4 mph 27.6 mph N/A   Overcast
2:52 PM 46.0 °F 38.8 °F 18.0 °F 33% 29.97 in 10.0 mi NNW 18.4 mph - N/A   Clear
3:52 PM 42.1 °F 33.3 °F 18.0 °F 38% 29.99 in 10.0 mi North 19.6 mph - N/A   Clear
4:52 PM 37.9 °F 27.9 °F 18.0 °F 45% 30.01 in 10.0 mi North 19.6 mph - N/A   Clear
5:52 PM 36.0 °F 27.1 °F 18.0 °F 48% 30.03 in 10.0 mi NW 13.8 mph - N/A   Partly Cloudy
6:52 PM 36.0 °F 29.0 °F 18.0 °F 48% 30.03 in 10.0 mi WNW 9.2 mph - N/A   Overcast
7:52 PM 30.9 °F 24.3 °F 17.1 °F 57% 30.01 in 10.0 mi WNW 6.9 mph - N/A   Partly Cloudy
8:52 PM 33.1 °F 27.7 °F 19.0 °F 56% 29.99 in 10.0 mi WNW 5.8 mph - N/A   Overcast
9:52 PM 37.0 °F 29.3 °F 19.9 °F 50% 29.95 in 10.0 mi WNW 11.5 mph - N/A   Overcast
10:52 PM 37.0 °F 30.4 °F 19.9 °F 50% 29.91 in 10.0 mi West 9.2 mph - N/A   Mostly Cloudy
11:52 PM 33.1 °F 26.1 °F 19.0 °F 56% 29.91 in 10.0 mi West 8.1 mph - N/A   Clear